Location: Gro�sch�nbrunn
(49.5760°N, 11.8868°E)
Time: 16:34:57
(UTC+00:00)

Meteor 2-19 Rocket - Pass Details

Date: 18 September 2020
Orbit: 935 x 959 km, 82.5° (Epoch: 31 October)

Event Time Altitude Azimuth Distance (km) Brightness Sun altitude
Rises 19:56:43 0° 351° (N) 3,642 8.1 -24.8°
Reaches altitude 10° 19:59:16 10° 355° (N) 2,689 7.3 -25.1°
Maximum altitude 20:05:22 62° 76° (ENE) 1,065 4.4 -25.9°
Enters shadow 20:05:41 61° 92° (E) 1,073 4.4 -26.0°
